FLOCK 2P-6 (41606 NORAD) Tracking and Keplerian Element Data

This shows tracking and keplerian element data for the satellite.

Feedback or suggestion? Click here.




ElementValue
Catalog41606
NameFLOCK 2P-6
Epoch Orbit9163
Epoch Day45.79528704
Epoch Year2018
RAAN111.4581
Inclination97.4292
Eccentricity0.0008978
Argument of Perigee308.8177
Mean Anonmoly51.2258
Mean Motion15.23956183
Decay Rate1.61E-05
L11 41606U 16040H 18045.79528704 .00001610 00000-0 69497-4 0 9995
L22 41606 97.4292 111.4581 0008978 308.8177 51.2258 15.23956183 91634

Live tracking and technical data element details for FLOCK 2P-6 (NORAD 41606). FLOCK 2P-6 can be tracked NOW for your location showing map with azimuth and elevation plus other details from your city location.

Track the satellite on the map from your city or location and see movement details for azimuth, elevation, latitude, longitude, range, height, and movement on the map or in text.







IsCatalogInMostPopularTable: catalog: 41606, numindb: 117
Update: records affected: 1



GetName: 41606 FLOCK 2P-6

Hit Count: updated at: Mon, 12 Nov 2018 17:58:06 GMT